Dewpoint
36 36 37 36 37 39 40 40 42 42 42 42 43 44 46 47 48 51 54 54 54 54 54 53 53 53 53 50 50 49 46 43 39 37 39 39 39 39 39 40 41 40 38
36 37 37 36 37 39 40 41 42 42 43 43 44 45 46 48 50 52 54 53 53 53 53 53 53 53 51 49 49 48 44 42 40 37 37 37 38 38 38 38 38 40 39
35 37 36 36 36 40 41 42 42 43 44 45 45 46 47 49 51 53 54 54 53 53 53 52 52 53 51 50 49 46 44 42 40 38 36 36 37 37 37 37 37 36 38
35 36 36 35 39 41 41 42 43 44 45 47 47 48 49 51 52 53 53 52 52 51 52 52 52 52 52 50 48 45 42 41 39 37 36 35 35 35 35 34 34 34 33
35 35 35 38 40 41 41 41 42 43 44 46 46 46 47 48 49 50 50 49 49 47 47 49 50 47 44 46 47 44 42 41 39 37 34 34 31 32 33 33 33 33 33
34 34 37 40 40 40 41 41 42 42 43 43 42 42 42 42 41 43 46 45 45 44 42 42 42 40 41 41 41 41 42 41 39 38 36 35 34 33 33 32 33 33 33
34 34 38 39 39 39 40 41 41 41 42 41 41 41 40 41 41 41 41 43 42 42 42 41 40 39 40 40 38 37 36 38 39 40 38 36 34 32 32 32 32 32 32
33 36 38 38 37 36 37 39 40 40 40 40 40 39 39 39 40 40 39 40 39 39 40 40 40 39 39 38 36 33 33 35 35 35 35 34 34 33 34 34 33 32 31
33 37 37 37 36 36 36 37 38 39 38 38 39 39 38 38 39 39 39 38 36 35 35 37 39 38 37 37 33 30 28 28 34 35 36 36 36 36 35 33 32 26 26
33 36 36 36 36 36 35 34 33 34 34 35 35 35 34 36 37 37 37 36 34 32 32 32 33 35 35 33 29 27 25 26 25 25 28 29 29 29 31 31 31 28 24
33 35 35 36 35 35 34 34 34 33 33 33 33 33 34 34 36 36 35 32 31 30 30 31 32 34 33 32 29 27 28 28 26 23 22 23 23 23 23 25 28 28 31
34 35 34 34 34 34 34 33 33 33 33 32 32 31 32 33 34 35 34 32 32 30 30 30 31 33 33 32 31 32 30 24 22 21 21 19 18 17 17 18 19 21 24
35 34 34 34 34 34 34 33 33 33 32 30 30 29 28 30 32 34 33 33 32 30 31 32 32 32 31 30 29 27 22 22 21 21 21 16 14 13 13 14 15 14 14
35 34 34 34 33 33 33 33 34 33 31 28 28 28 27 27 30 31 32 31 31 30 30 27 29 29 28 26 25 26 24 24 22 20 16 14 14 14 19 12 13 12 17
35 34 34 34 34 33 32 33 33 31 32 30 29 28 28 27 29 29 28 29 30 29 25 19 18 21 26 27 28 27 25 23 23 20 21 18 17 20 17 12 12 15 18
34 34 34 34 33 33 33 32 35 35 33 31 30 28 25 30 32 32 32 32 31 29 19 25 26 27 27 26 25 25 24 20 12 17 17 16 16 15 16 16 15 14 12
35 34 34 33 33 32 31 32 31 32 34 33 32 32 32 32 32 33 33 31 31 29 28 27 27 26 24 24 23 22 20 13 8 14 13 10 12 12 12 11 8 10 6
35 34 34 34 33 32 31 30 31 30 29 29 31 33 35 33 34 34 33 32 28 27 26 27 25 24 21 21 19 14 11 10 8 8 9 6 6 4 4 3 -1 -6 -8
34 34 35 34 33 32 30 29 28 26 28 28 30 32 32 34 34 33 32 30 29 28 27 25 24 19 15 13 10 8 7 4 -0 3 -2 2 -2 4 -3 -8 -4 -5 -9
35 34 34 33 32 29 28 27 25 26 26 27 28 30 32 31 31 28 28 27 26 23 20 20 19 13 11 9 7 6 4 2 1 -0 -4 -1 -4 -4 -5 -8 -9 -7 -16
34 33 33 32 32 29 26 24 25 26 27 27 28 31 31 29 27 26 24 22 20 18 15 14 14 8 7 6 5 2 1 -5 -5 -4 -4 -8 -13 -9 -13 -10 -13 -17 -18
33 33 32 32 31 29 27 25 25 25 26 27 30 31 31 26 25 23 19 17 16 16 15 13 6 3 3 5 3 2 -0 -4 -8 -6 -8 -9 -8 -11 -13 -13 -12 -17 -15
32 32 32 31 30 29 26 25 25 26 27 29 30 28 26 24 22 18 16 15 14 13 12 8 5 -1 -5 -7 -9 -2 1 -3 -5 -5 -6 -9 -11 -13 -17 -14 -18 -17 -17
32 32 31 30 29 29 27 25 26 27 29 29 27 25 23 21 19 16 15 14 12 10 9 6 3 -0 -4 -8 -10 -11 -10 -17 -17 -10 -7 -7 -11 -13 -13 -17 -20 -21 -17
32 32 31 30 29 29 27 27 27 29 28 26 24 23 20 18 16 15 13 12 10 8 6 4 2 -1 -3 -5 -6 -7 -2 -9 -14 -12 -12 -11 -13 -16 -17 -16 -21 -20 -22
32 31 31 30 29 29 28 28 28 27 25 24 22 20 18 16 14 13 11 10 7 5 3 1 -1 -3 -5 -5 -8 -6 -3 -2 -10 -11 -13 -10 -12 -15 -15 -17 -20 -19 -22
Lifted_Index
12 11 9 8 8 7 6 6 5 5 5 5 5 5 5 5 4 4 3 3 4 4 4 4 4 4 4 4 4 4 4 4 4 4 5 6 7 7 8 9 10 11 11
12 11 9 8 8 7 7 6 6 6 5 5 5 5 5 5 5 4 4 4 4 4 4 3 3 3 3 4 4 4 4 4 4 4 5 6 7 7 8 8 9 10 11
11 10 9 8 8 8 7 7 6 6 6 6 5 5 5 5 4 4 4 4 4 4 4 3 3 3 3 3 4 3 3 3 3 4 5 6 7 7 8 8 9 10 10
10 9 8 8 8 7 7 7 7 7 6 6 6 5 5 4 4 4 4 4 4 4 4 3 3 3 3 3 3 3 3 3 3 4 4 5 6 7 8 8 9 10 10
9 8 8 8 7 7 7 7 7 7 7 6 6 5 4 4 3 3 3 3 4 4 3 3 3 3 2 2 2 2 3 3 3 4 4 5 6 7 8 9 10 10 10
8 8 7 7 6 6 6 7 7 7 6 6 5 5 4 4 3 3 3 3 3 3 3 3 3 2 2 2 2 3 3 3 4 4 5 6 7 8 9 10 10 11 10
8 7 7 6 6 6 6 6 6 6 5 5 5 4 4 3 3 3 3 3 3 3 2 2 2 2 2 2 3 3 3 4 5 6 6 7 8 9 10 11 11 11 11
8 7 6 6 5 5 6 6 6 5 5 4 4 3 3 3 3 3 3 2 2 2 2 2 2 2 3 3 3 3 4 6 7 8 9 10 11 12 12 12 12 12 11
8 7 6 6 5 5 5 5 5 5 4 4 4 3 3 3 3 3 3 2 2 2 2 3 3 3 4 4 4 5 6 7 9 10 11 12 13 14 14 14 13 12 11
8 7 6 6 5 5 5 5 5 5 4 4 4 4 4 4 4 3 3 3 3 3 3 3 4 5 5 6 7 7 7 9 10 11 12 12 13 14 14 14 13 12 12
8 7 6 6 6 5 5 5 5 5 5 5 5 5 5 5 5 4 4 4 4 4 4 5 6 7 8 8 9 9 9 10 11 12 12 12 12 13 14 15 15 14 14
8 7 6 6 6 5 5 5 5 6 6 6 6 6 6 6 6 6 6 6 6 6 6 7 8 9 9 10 10 11 12 12 12 12 12 12 12 14 15 16 16 16 16
7 7 6 6 5 5 6 6 6 6 7 7 7 7 7 7 7 7 8 8 8 8 8 9 9 10 11 12 12 12 13 13 12 11 11 11 12 13 15 15 15 15 15
8 7 7 6 6 6 6 7 7 7 7 7 7 7 8 8 8 8 9 9 9 10 10 11 11 12 12 13 13 12 12 12 11 11 10 11 12 12 13 13 13 13 13
8 7 7 6 6 6 6 7 7 7 8 8 8 8 8 8 8 9 9 10 11 11 12 12 12 12 12 12 12 12 12 11 11 11 11 11 12 12 13 14 14 14 14
8 7 7 6 6 6 6 7 8 8 8 9 9 9 9 9 9 10 10 11 12 13 12 11 11 11 11 11 11 11 12 12 13 13 13 13 13 14 15 15 16 16 16
8 7 7 7 7 6 7 7 8 9 9 9 9 10 10 10 10 11 12 13 14 13 11 10 10 11 11 12 12 12 12 13 14 14 14 15 16 16 17 17 17 17 16
9 8 7 7 7 7 7 8 8 9 9 9 10 10 10 11 11 12 13 14 14 11 10 10 11 11 12 12 12 12 13 14 15 16 16 17 17 17 17 17 17 16 16
10 9 8 7 7 7 8 8 8 9 9 10 10 10 11 11 12 13 14 14 13 11 10 10 11 11 12 12 13 13 14 15 16 17 18 18 18 17 17 17 16 16 16
10 10 9 8 8 7 8 8 8 9 9 10 10 11 11 12 12 13 14 14 12 11 10 10 11 11 12 13 14 15 16 17 18 18 18 18 18 18 17 17 17 16 16
11 10 10 9 8 8 8 8 8 9 10 10 11 12 12 13 13 13 13 13 13 12 11 10 11 12 13 14 15 16 17 18 19 19 19 19 19 18 18 17 17 16 16
11 11 10 10 9 9 9 9 9 9 10 11 12 13 14 14 14 13 13 13 13 12 12 11 12 13 14 16 17 18 19 19 20 20 20 19 19 18 18 18 17 17 17
11 11 11 10 10 10 10 10 10 10 11 12 13 14 14 14 14 13 13 13 13 13 13 13 13 15 16 18 20 21 21 21 21 21 20 20 19 19 18 18 18 17 17
12 12 11 11 11 10 10 10 11 11 12 13 14 15 15 14 14 13 13 13 13 13 14 14 16 17 18 20 22 23 23 23 23 23 22 21 20 19 19 18 18 18 18
13 12 12 12 12 11 12 12 12 13 14 15 15 15 15 15 14 13 13 13 13 14 15 16 18 19 21 22 23 24 24 24 24 24 23 22 21 20 19 19 19 18 18
13 13 12 12 12 12 12 13 13 14 15 15 15 16 15 15 14 13 12 13 13 14 16 17 19 21 22 23 24 24 24 24 24 24 23 22 21 20 20 19 19 19 18